Winnipeg 'A' Cs, Canada

10:49 AM CDT on July 23, 2016 (GMT -0500)
Winnipeg International

Weather History for CYWG - January, 2013

Change the Weather History Date:

Friday, January 18, 2013

  Actual Average Record
Temperature  
Mean Temperature -1 °F -  
Max Temperature 8 °F 7 °F 30 °F (2014)
Min Temperature -10 °F -6 °F -27 °F (2011)
Degree Days  
Heating Degree Days 66    
Moisture  
Dew Point -0 °F    
Average Humidity 80    
Maximum Humidity 85    
Minimum Humidity 53    
Precipitation  
Precipitation 0.04 in - - ()
Sea Level Pressure  
Sea Level Pressure 29.94 in    
Wind  
Wind Speed 9 mph ()    
Max Wind Speed 14 mph    
Max Gust Speed -    
Visibility 6.4 miles    
Events Snow    
Averages and records for this station are not official NWS values.
T = Trace of Precipitation, MM = Missing Value Source: Averaged Metar Reports

Daily Weather History Graph

Daily Weather History Graph

Search for Another Location

Airport or City:

Trip Planner

Search our weather history database for the weather conditions in past years. The results will help you decide how hot, cold, wet, or windy it might be!

Date:

Astronomy

Jan. 18, 2013 Rise Set
Actual Time 8:18 AM CST 5:01 PM CST
Civil Twilight 7:41 AM CST 5:37 PM CST
Nautical Twilight 7:01 AM CST 6:17 PM CST
Astronomical Twilight 6:23 AM CST 6:55 PM CST
Moon 11:08 AM CST (1/18) 12:39 AM CST (1/18)
Length of Visible Light 9h 55m
Length of Day
8h 42m
Waxing Crescent, 47% of the Moon is Illuminated
Jan 18
Waxing Crescent
Jan 18
First Quarter
Jan 26
Full
Feb 3
Last Quarter
Feb 10
New

Hourly Weather History & Observations

Time (CST) Temp. Windchill Dew Point Humidity Pressure Visibility Wind Dir Wind Speed Gust Speed Precip Events Conditions
12:00 AM -1 °F - -10 °F 53% 30.21 in 9 mi Calm Calm - -  
12:00 AM -0.4 °F -17.6 °F -9.4 °F 66% 30.21 in 15.0 mi SSE 11.5 mph - N/A   Overcast
1:00 AM -0.4 °F -15.7 °F -7.6 °F 72% 30.18 in 15.0 mi SSE 9.2 mph - N/A   Overcast
1:22 AM -0.4 °F -15.7 °F -5.8 °F 78% 30.17 in 2.0 mi SSE 9.2 mph - N/A Snow Light Snow
1:47 AM -0.4 °F -17.6 °F -4.0 °F 85% 30.15 in 1.2 mi SE 11.5 mph - N/A Snow Light Snow
2:00 AM -0.4 °F -16.7 °F -4.0 °F 85% 30.14 in 1.2 mi SE 10.4 mph - N/A Snow Light Snow
3:00 AM 1.4 °F -15.3 °F -4.0 °F 78% 30.10 in 1.2 mi SE 11.5 mph - N/A Snow Light Snow
3:30 AM 1.4 °F -14.5 °F -4.0 °F 78% 30.08 in 2.0 mi SE 10.4 mph - N/A Snow Light Snow
4:00 AM 1.4 °F -15.3 °F -2.2 °F 85% 30.06 in 6.0 mi ESE 11.5 mph - N/A Snow Light Snow
5:00 AM 3.2 °F -14.6 °F -0.4 °F 85% 30.01 in 6.0 mi ESE 13.8 mph - N/A Snow Light Snow
6:00 AM 3 °F - -2 °F 70% 29.99 in 9 mi Calm Calm - -   Overcast
6:00 AM 3.2 °F -13.9 °F -2.2 °F 78% 29.99 in 8.0 mi East 12.7 mph - N/A Snow Light Snow
7:00 AM 3.2 °F -13.9 °F -2.2 °F 78% 29.94 in 4.0 mi ESE 12.7 mph - N/A Snow Light Snow
8:00 AM 3.2 °F -12.2 °F -0.4 °F 85% 29.94 in 6.0 mi East 10.4 mph - N/A Snow Light Snow
8:13 AM 3.2 °F -11.3 °F -0.4 °F 85% 29.95 in 2.0 mi East 9.2 mph - N/A Snow Light Snow
8:25 AM 3.2 °F -12.2 °F -0.4 °F 85% 29.95 in 1.0 mi East 10.4 mph - N/A Snow Light Snow
8:49 AM 3.2 °F -11.3 °F -0.4 °F 85% 29.95 in 4.0 mi East 9.2 mph - N/A Snow Light Snow
9:00 AM 3.2 °F -11.3 °F -0.4 °F 85% 29.95 in 6.0 mi East 9.2 mph - N/A Snow Light Snow
9:29 AM 3.2 °F -13.9 °F -0.4 °F 85% 29.95 in 10.0 mi East 12.7 mph - N/A Snow Light Snow
9:51 AM 3.2 °F -14.6 °F -0.4 °F 85% 29.94 in 15.0 mi East 13.8 mph - N/A   Overcast
10:00 AM 3.2 °F -13.9 °F -0.4 °F 85% 29.92 in 15.0 mi East 12.7 mph - N/A   Overcast
11:00 AM 5.0 °F -8.1 °F -0.4 °F 78% 29.94 in 15.0 mi East 8.1 mph - N/A   Overcast
12:00 PM 6 °F - 1 °F 69% 29.90 in 9 mi Calm Calm - -   Overcast
12:00 PM 6.8 °F -4.8 °F 1.4 °F 79% 29.90 in 15.0 mi East 6.9 mph - N/A   Overcast
12:32 PM 6.8 °F -2.0 °F 1.4 °F 79% 29.89 in 10.0 mi East 4.6 mph - N/A Snow Light Snow
1:00 PM 6.8 °F -5.9 °F 1.4 °F 79% 29.86 in 5.0 mi East 8.1 mph - N/A Snow Light Snow
2:00 PM 6.8 °F -5.9 °F 1.4 °F 79% 29.88 in 12.0 mi NNE 8.1 mph - N/A Snow Light Snow
3:00 PM 6.8 °F -7.8 °F 1.4 °F 79% 29.87 in 8.0 mi NNE 10.4 mph - N/A Snow Light Snow
3:50 PM 6.8 °F -6.9 °F 1.4 °F 79% 29.87 in 2.5 mi NE 9.2 mph - N/A Snow Light Snow
4:00 PM 6.8 °F -5.9 °F 1.4 °F 79% 29.88 in 2.0 mi NE 8.1 mph - N/A Snow Light Snow
4:07 PM 6.8 °F -6.9 °F 1.4 °F 79% 29.87 in 3.0 mi ENE 9.2 mph - N/A Snow Light Snow
5:00 PM 6.8 °F -4.8 °F 1.4 °F 79% 29.88 in 4.0 mi NE 6.9 mph - N/A Snow Light Snow
5:16 PM 6.8 °F -4.8 °F 1.4 °F 79% 29.88 in 1.5 mi NE 6.9 mph - N/A Snow Light Snow
6:00 PM 6 °F - 2 °F 73% 29.88 in 2 mi Calm Calm - -   Unknown Precipitation
6:00 PM 6.8 °F -4.8 °F 1.4 °F 79% 29.88 in 2.5 mi ENE 6.9 mph - N/A Snow Light Snow
6:21 PM 5.0 °F -6.9 °F 1.4 °F 85% 29.87 in 1.5 mi ENE 6.9 mph - N/A Snow Light Snow
6:36 PM 5.0 °F -4.1 °F 1.4 °F 85% 29.87 in 2.0 mi ENE 4.6 mph - N/A Snow Light Snow
7:00 PM 5.0 °F -6.9 °F 1.4 °F 85% 29.86 in 10.0 mi ENE 6.9 mph - N/A Snow Light Snow
8:00 PM 6.8 °F -3.5 °F 1.4 °F 79% 29.85 in 8.0 mi East 5.8 mph - N/A Snow Light Snow
9:00 PM 6.8 °F -3.5 °F 3.2 °F 85% 29.84 in 12.0 mi East 5.8 mph - N/A Snow Light Snow
10:00 PM 8.6 °F -3.7 °F 3.2 °F 79% 29.81 in 15.0 mi East 8.1 mph - N/A Snow Light Snow
10:26 PM 8.6 °F -2.6 °F 5.0 °F 85% 29.80 in 2.0 mi ESE 6.9 mph - N/A Snow Light Snow
10:32 PM 8.6 °F -4.7 °F 5.0 °F 85% 29.80 in 1.8 mi ESE 9.2 mph - N/A Snow Light Snow
11:00 PM 8.6 °F -3.7 °F 5.0 °F 85% 29.79 in 1.8 mi ESE 8.1 mph - N/A Snow Light Snow
11:36 PM 8.6 °F -2.6 °F 5.0 °F 85% 29.78 in 2.0 mi ESE 6.9 mph - N/A Snow Light Snow